Weather in Veliky Obzyr

Ukraine / Volyn Oblast     51°27′11″N   25°12′47″E
temp.,
°C
wind,
m/s
gust,
m/s
humid.,
%
clouds,
%
prec.,
mm/h
press.,
hPa
HPBL,
m
21 june, mon
mon2100:00+21ese310675 0.0 1014298
03:00+17e239130 0.0 101458
06:00+18e269299 0.0 1013158
09:00+24e47705 0.0 1013770
12:00+28ese47505 0.0 10121624
15:00+28se455473 0.0 10111449
18:00+28se45533 0.1 10101352
21:00+23sse23793 0.3 101063
22 june, tue
tue2200:00+20sse239061 0.0 101146
03:00+19sse25955 0.0 101292
06:00+19se259418 0.0 1012118
09:00+24sse35670 0.0 1012648
12:00+29se46490 0.0 10121521
15:00+30sse56430 0.0 10121861
18:00+30sse45477 0.0 10121878
21:00+24s12740 0.0 101212
23 june, wed
wed2300:00+21sse24875 0.1 101372
03:00+20se24925 0.1 101383
06:00+20se24955 0.1 1013108
09:00+26se34695 0.1 1014550
12:00+30sse235165 0.0 10151758
15:00+33s224170 0.0 10142412
18:00+25nw2475100 0.8 101583
21:00+20n3795100 5.3 1015167
24 june, thu
thu2400:00+20nne2290100 3.6 101623
03:00+19nnw229277 3.6 101619
06:00+19nnw119170 0.0 101625
09:00+24n22715 0.0 1016355
12:00+29nnw22552 0.0 1016972
15:00+31nnw32482 0.0 10151589
18:00+30nnw325136 0.0 10151164
21:00+24e23790 0.1 101453
25 june, fri
fri2500:00+22se22820 0.0 101436
03:00+20se1294100 0.3 101415
06:00+20sse2495100 0.4 101378
09:00+25sse3679100 0.4 1012347
12:00+30s5752100 0.0 10121218
15:00+31ssw464895 0.0 10122010
18:00+29w55502 0.0 10111416
21:00+24w387397 0.1 1013296